sat.trackr.live / text

‹ back to catalog

STARLINK-4766

NORAD 53840 · 2022-114Y

PAYLOAD ACTIVE UNKNOWN

§ Identity

Operator
Country
US
Launch date
2022-09-19
Launch site
AFETR
Launch vehicle
Mass (kg)
RCS (m²)

Purposes: comms

External: N2YO · Heavens-Above · Gunter

§ Orbital elements

Epoch: 2026-05-25T03:35:42.429696Z

Period
95.44 min
Inclination
53.2125°
Eccentricity
0.0001607
Mean motion
15.08842859 rev/d
Perigee alt
538.6 km
Apogee alt
540.8 km
Semi-major
6,917.9 km
B*
-3.4600e-5
RAAN
310.9357°
Arg perigee
92.1081°
Mean anomaly
268.0095°
Rev number
20,451

§ Raw data

STARLINK-47661 53840U 22114Y   26145.14979664 -.00000839  00000+0 -34600-4 0  99922 53840  53.2125 310.9357 0001607  92.1081 268.0095 15.08842859204515

JSON: /api/v1/satellites/53840 · /tle

For live sub-satellite position, see the globe view (requires WebGL).

§ Visibility from observer

Set your observer location to see the next 7 days of passes ≥ 10°. The values pass through the URL so the page stays shareable.

No JS? Fill the form by hand. The geolocation button needs JavaScript.